Time,TemperatureF,DewpointF,PressureIn,WindDirection,WindDirectionDegrees,WindSpeedMPH,WindSpeedGustMPH,Humidity,HourlyPrecipIn,Conditions,Clouds,dailyrainin,SoftwareType,DateUTC
2014-01-25 00:04:00,31.7,28.6,30.39,SW,225,0.0,1.0,88,0.00,,,0.00,Wunderground v.1.15,2014-01-25 06:04:00,
2014-01-25 00:10:00,31.7,28.6,30.38,SW,225,0.0,1.0,88,0.00,,,0.00,Wunderground v.1.15,2014-01-25 06:10:00,
2014-01-25 00:16:00,31.4,28.3,30.38,SW,225,1.0,1.0,88,0.00,,,0.00,Wunderground v.1.15,2014-01-25 06:16:00,
2014-01-25 00:22:00,31.3,28.4,30.39,SW,225,0.0,0.0,89,0.00,,,0.00,Wunderground v.1.15,2014-01-25 06:22:00,
2014-01-25 00:27:00,31.2,28.1,30.38,SW,225,0.0,4.0,88,0.00,,,0.00,Wunderground v.1.15,2014-01-25 06:27:00,
2014-01-25 00:33:00,31.3,28.4,30.38,SW,225,1.0,1.0,89,0.00,,,0.00,Wunderground v.1.15,2014-01-25 06:33:00,
2014-01-25 00:39:00,31.2,28.3,30.38,SW,225,0.0,1.0,89,0.00,,,0.00,Wunderground v.1.15,2014-01-25 06:39:00,
2014-01-25 00:45:00,31.2,28.3,30.38,SW,225,0.0,1.0,89,0.00,,,0.00,Wunderground v.1.15,2014-01-25 06:45:00,
2014-01-25 00:51:00,31.1,28.2,30.38,SW,225,0.0,0.0,89,0.00,,,0.00,Wunderground v.1.15,2014-01-25 06:51:00,
2014-01-25 00:57:00,31.2,28.3,30.38,SW,225,0.0,1.0,89,0.00,,,0.00,Wunderground v.1.15,2014-01-25 06:57:00,
2014-01-25 01:02:00,31.2,28.6,30.37,SW,225,0.0,1.0,90,0.00,,,0.00,Wunderground v.1.15,2014-01-25 07:02:00,
2014-01-25 01:08:00,31.3,28.7,30.37,SW,225,0.0,2.0,90,0.00,,,0.00,Wunderground v.1.15,2014-01-25 07:08:00,
2014-01-25 01:14:00,31.2,28.6,30.37,SW,225,0.0,0.0,90,0.00,,,0.00,Wunderground v.1.15,2014-01-25 07:14:00,
2014-01-25 01:19:00,31.3,28.7,30.37,SW,225,0.0,2.0,90,0.00,,,0.00,Wunderground v.1.15,2014-01-25 07:19:00,
2014-01-25 01:25:00,31.2,28.6,30.37,SW,225,1.0,1.0,90,0.00,,,0.00,Wunderground v.1.15,2014-01-25 07:25:00,
2014-01-25 01:31:00,30.9,28.3,30.37,SW,225,0.0,0.0,90,0.00,,,0.00,Wunderground v.1.15,2014-01-25 07:31:00,
2014-01-25 01:37:00,30.7,28.1,30.37,SW,225,0.0,1.0,90,0.00,,,0.00,Wunderground v.1.15,2014-01-25 07:37:00,
2014-01-25 01:42:00,30.7,28.4,30.36,SW,225,0.0,2.0,91,0.00,,,0.00,Wunderground v.1.15,2014-01-25 07:42:00,
2014-01-25 01:48:00,30.6,28.3,30.36,SW,225,1.0,2.0,91,0.00,,,0.00,Wunderground v.1.15,2014-01-25 07:48:00,
2014-01-25 01:54:00,30.6,28.3,30.36,SW,225,1.0,1.0,91,0.00,,,0.00,Wunderground v.1.15,2014-01-25 07:54:00,
2014-01-25 01:59:00,30.6,28.3,30.36,SW,225,1.0,3.0,91,0.00,,,0.00,Wunderground v.1.15,2014-01-25 07:59:00,
2014-01-25 02:04:00,30.5,28.2,30.36,SW,225,1.0,1.0,91,0.00,,,0.00,Wunderground v.1.15,2014-01-25 08:04:00,
2014-01-25 02:10:00,30.5,28.2,30.36,SW,225,0.0,0.0,91,0.00,,,0.00,Wunderground v.1.15,2014-01-25 08:10:00,
2014-01-25 02:15:00,30.3,28.0,30.35,SW,225,1.0,4.0,91,0.00,,,0.00,Wunderground v.1.15,2014-01-25 08:15:00,
2014-01-25 02:21:00,30.1,27.8,30.35,SW,225,1.0,1.0,91,0.00,,,0.00,Wunderground v.1.15,2014-01-25 08:21:00,
2014-01-25 02:27:00,29.9,27.6,30.35,SW,225,1.0,2.0,91,0.00,,,0.00,Wunderground v.1.15,2014-01-25 08:27:00,
2014-01-25 02:33:00,29.8,27.5,30.34,SW,225,1.0,2.0,91,0.00,,,0.00,Wunderground v.1.15,2014-01-25 08:33:00,
2014-01-25 02:38:00,29.8,27.5,30.34,SW,225,1.0,2.0,91,0.00,,,0.00,Wunderground v.1.15,2014-01-25 08:38:00,
2014-01-25 02:43:00,29.7,27.4,30.34,SW,225,2.0,4.0,91,0.00,,,0.00,Wunderground v.1.15,2014-01-25 08:43:00,
2014-01-25 02:49:00,29.6,27.3,30.33,SW,225,2.0,4.0,91,0.00,,,0.00,Wunderground v.1.15,2014-01-25 08:49:00,
2014-01-25 02:55:00,29.6,27.3,30.33,SW,225,2.0,4.0,91,0.00,,,0.00,Wunderground v.1.15,2014-01-25 08:55:00,
2014-01-25 03:00:00,29.5,27.2,30.33,SW,225,1.0,2.0,91,0.00,,,0.00,Wunderground v.1.15,2014-01-25 09:00:00,
2014-01-25 03:06:00,29.6,27.3,30.33,SW,225,2.0,4.0,91,0.00,,,0.00,Wunderground v.1.15,2014-01-25 09:06:00,
2014-01-25 03:12:00,29.7,27.4,30.33,SW,225,2.0,3.0,91,0.00,,,0.00,Wunderground v.1.15,2014-01-25 09:12:00,
2014-01-25 03:18:00,29.6,27.3,30.33,SW,225,1.0,3.0,91,0.00,,,0.00,Wunderground v.1.15,2014-01-25 09:18:00,
2014-01-25 03:23:00,29.5,27.2,30.33,SW,225,2.0,3.0,91,0.00,,,0.00,Wunderground v.1.15,2014-01-25 09:23:00,
2014-01-25 03:29:00,29.4,27.1,30.32,SW,225,1.0,4.0,91,0.00,,,0.00,Wunderground v.1.15,2014-01-25 09:29:00,
2014-01-25 03:35:00,29.2,26.9,30.32,SW,225,1.0,1.0,91,0.00,,,0.00,Wunderground v.1.15,2014-01-25 09:35:00,
2014-01-25 03:41:00,29.0,26.7,30.31,SW,225,1.0,2.0,91,0.00,,,0.00,Wunderground v.1.15,2014-01-25 09:41:00,
2014-01-25 03:46:00,28.8,26.5,30.31,SW,225,0.0,2.0,91,0.00,,,0.00,Wunderground v.1.15,2014-01-25 09:46:00,
2014-01-25 03:51:00,28.6,26.3,30.31,SW,225,0.0,0.0,91,0.00,,,0.00,Wunderground v.1.15,2014-01-25 09:51:00,
2014-01-25 03:56:00,28.5,26.2,30.31,SW,225,0.0,1.0,91,0.00,,,0.00,Wunderground v.1.15,2014-01-25 09:56:00,
2014-01-25 04:02:00,28.4,26.1,30.31,SW,225,0.0,0.0,91,0.00,,,0.00,Wunderground v.1.15,2014-01-25 10:02:00,
2014-01-25 04:08:00,28.5,26.2,30.30,SW,225,1.0,1.0,91,0.00,,,0.00,Wunderground v.1.15,2014-01-25 10:08:00,
2014-01-25 04:14:00,28.4,26.1,30.31,SW,225,0.0,1.0,91,0.00,,,0.00,Wunderground v.1.15,2014-01-25 10:14:00,
2014-01-25 04:20:00,28.4,26.1,30.30,SW,225,0.0,0.0,91,0.00,,,0.00,Wunderground v.1.15,2014-01-25 10:20:00,
2014-01-25 04:26:00,28.5,26.2,30.30,SW,225,0.0,0.0,91,0.00,,,0.00,Wunderground v.1.15,2014-01-25 10:26:00,
2014-01-25 04:31:00,28.5,26.2,30.30,SW,225,0.0,0.0,91,0.00,,,0.00,Wunderground v.1.15,2014-01-25 10:31:00,
2014-01-25 04:37:00,28.5,26.2,30.30,SW,225,0.0,0.0,91,0.00,,,0.00,Wunderground v.1.15,2014-01-25 10:37:00,
2014-01-25 04:43:00,28.5,26.5,30.30,SW,225,1.0,2.0,92,0.00,,,0.00,Wunderground v.1.15,2014-01-25 10:43:00,
2014-01-25 04:49:00,28.4,26.4,30.29,SW,225,1.0,2.0,92,0.00,,,0.00,Wunderground v.1.15,2014-01-25 10:49:00,
2014-01-25 04:54:00,28.4,26.4,30.29,SW,225,0.0,2.0,92,0.00,,,0.00,Wunderground v.1.15,2014-01-25 10:54:00,
2014-01-25 05:00:00,28.4,26.4,30.29,SW,225,1.0,1.0,92,0.00,,,0.00,Wunderground v.1.15,2014-01-25 11:00:00,
2014-01-25 05:06:00,28.4,26.4,30.29,SW,225,1.0,1.0,92,0.00,,,0.00,Wunderground v.1.15,2014-01-25 11:06:00,
2014-01-25 05:12:00,28.3,26.3,30.29,SW,225,0.0,0.0,92,0.00,,,0.00,Wunderground v.1.15,2014-01-25 11:12:00,
2014-01-25 05:18:00,28.5,26.5,30.29,SW,225,0.0,0.0,92,0.00,,,0.00,Wunderground v.1.15,2014-01-25 11:18:00,
2014-01-25 05:24:00,28.6,26.6,30.28,SW,225,0.0,0.0,92,0.00,,,0.00,Wunderground v.1.15,2014-01-25 11:24:00,
2014-01-25 05:30:00,28.3,26.3,30.28,SW,225,0.0,0.0,92,0.00,,,0.00,Wunderground v.1.15,2014-01-25 11:30:00,
2014-01-25 05:36:00,28.0,26.0,30.28,SW,225,0.0,1.0,92,0.00,,,0.00,Wunderground v.1.15,2014-01-25 11:36:00,
2014-01-25 05:42:00,28.0,26.0,30.28,SW,225,0.0,1.0,92,0.00,,,0.00,Wunderground v.1.15,2014-01-25 11:42:00,
2014-01-25 05:47:00,27.9,25.9,30.28,SW,225,0.0,1.0,92,0.00,,,0.00,Wunderground v.1.15,2014-01-25 11:47:00,
2014-01-25 05:53:00,27.7,25.7,30.28,SW,225,0.0,0.0,92,0.00,,,0.00,Wunderground v.1.15,2014-01-25 11:53:00,
2014-01-25 05:59:00,27.6,25.6,30.28,SW,225,0.0,1.0,92,0.00,,,0.00,Wunderground v.1.15,2014-01-25 11:59:00,
2014-01-25 06:04:00,27.5,25.5,30.28,SW,225,0.0,1.0,92,0.00,,,0.00,Wunderground v.1.15,2014-01-25 12:04:00,
2014-01-25 06:10:00,27.5,25.5,30.28,SW,225,0.0,0.0,92,0.00,,,0.00,Wunderground v.1.15,2014-01-25 12:10:00,
2014-01-25 06:15:00,27.5,25.5,30.28,SW,225,0.0,0.0,92,0.00,,,0.00,Wunderground v.1.15,2014-01-25 12:15:00,
2014-01-25 06:21:00,27.5,25.5,30.29,SW,225,0.0,1.0,92,0.00,,,0.00,Wunderground v.1.15,2014-01-25 12:21:00,
2014-01-25 06:27:00,27.5,25.5,30.29,SW,225,0.0,1.0,92,0.00,,,0.00,Wunderground v.1.15,2014-01-25 12:27:00,
2014-01-25 06:33:00,27.6,25.6,30.29,SW,225,1.0,1.0,92,0.00,,,0.00,Wunderground v.1.15,2014-01-25 12:33:00,
2014-01-25 06:39:00,27.8,25.8,30.29,SW,225,0.0,1.0,92,0.00,,,0.00,Wunderground v.1.15,2014-01-25 12:39:00,
2014-01-25 06:44:00,28.1,26.1,30.29,SW,225,0.0,1.0,92,0.00,,,0.00,Wunderground v.1.15,2014-01-25 12:44:00,
2014-01-25 06:50:00,28.6,26.6,30.29,SW,225,0.0,4.0,92,0.00,,,0.00,Wunderground v.1.15,2014-01-25 12:50:00,
2014-01-25 06:56:00,28.6,26.6,30.29,SW,225,1.0,4.0,92,0.00,,,0.00,Wunderground v.1.15,2014-01-25 12:56:00,
2014-01-25 07:01:00,28.7,26.7,30.29,SW,225,0.0,1.0,92,0.00,,,0.00,Wunderground v.1.15,2014-01-25 13:01:00,
2014-01-25 07:07:00,28.9,26.9,30.29,SW,225,0.0,1.0,92,0.00,,,0.00,Wunderground v.1.15,2014-01-25 13:07:00,
2014-01-25 07:12:00,28.9,26.9,30.29,SW,225,0.0,0.0,92,0.00,,,0.00,Wunderground v.1.15,2014-01-25 13:12:00,
2014-01-25 07:18:00,28.9,26.9,30.29,SW,225,0.0,0.0,92,0.00,,,0.00,Wunderground v.1.15,2014-01-25 13:18:00,
2014-01-25 07:24:00,29.0,27.0,30.29,SW,225,0.0,0.0,92,0.00,,,0.00,Wunderground v.1.15,2014-01-25 13:24:00,
2014-01-25 07:30:00,28.8,26.8,30.29,SW,225,0.0,0.0,92,0.00,,,0.00,Wunderground v.1.15,2014-01-25 13:30:00,
2014-01-25 07:36:00,28.7,26.7,30.29,SW,225,1.0,2.0,92,0.00,,,0.00,Wunderground v.1.15,2014-01-25 13:36:00,
2014-01-25 07:42:00,28.4,26.4,30.29,SW,225,1.0,1.0,92,0.00,,,0.00,Wunderground v.1.15,2014-01-25 13:42:00,
2014-01-25 07:48:00,28.5,26.5,30.29,SW,225,0.0,1.0,92,0.00,,,0.00,Wunderground v.1.15,2014-01-25 13:48:00,
2014-01-25 07:54:00,29.0,27.0,30.29,SW,225,0.0,0.0,92,0.00,,,0.00,Wunderground v.1.15,2014-01-25 13:54:00,
2014-01-25 08:00:00,29.5,27.5,30.29,SW,225,0.0,0.0,92,0.00,,,0.00,Wunderground v.1.15,2014-01-25 14:00:00,
2014-01-25 08:06:00,29.6,27.6,30.29,SW,225,0.0,0.0,92,0.00,,,0.00,Wunderground v.1.15,2014-01-25 14:06:00,
2014-01-25 08:11:00,29.9,27.9,30.29,SW,225,0.0,0.0,92,0.00,,,0.00,Wunderground v.1.15,2014-01-25 14:11:00,
2014-01-25 08:17:00,30.5,28.5,30.29,SW,225,0.0,0.0,92,0.00,,,0.00,Wunderground v.1.15,2014-01-25 14:17:00,
2014-01-25 08:23:00,30.9,28.9,30.29,SW,225,0.0,0.0,92,0.00,,,0.00,Wunderground v.1.15,2014-01-25 14:23:00,
2014-01-25 08:29:00,31.6,29.5,30.29,SW,225,0.0,2.0,92,0.00,,,0.00,Wunderground v.1.15,2014-01-25 14:29:00,
2014-01-25 08:34:00,32.0,29.7,30.29,SW,225,1.0,2.0,91,0.00,,,0.00,Wunderground v.1.15,2014-01-25 14:34:00,
2014-01-25 08:40:00,32.8,30.5,30.29,SW,225,2.0,2.0,91,0.00,,,0.00,Wunderground v.1.15,2014-01-25 14:40:00,
2014-01-25 08:46:00,33.6,31.0,30.28,SW,225,1.0,2.0,90,0.00,,,0.00,Wunderground v.1.15,2014-01-25 14:46:00,
2014-01-25 08:52:00,34.4,31.8,30.28,SW,225,2.0,4.0,90,0.00,,,0.00,Wunderground v.1.15,2014-01-25 14:52:00,
2014-01-25 08:57:00,35.1,31.9,30.28,SW,224,3.0,4.0,88,0.00,,,0.00,Wunderground v.1.15,2014-01-25 14:57:00,
2014-01-25 09:02:00,35.9,32.1,30.28,SSW,213,3.0,7.0,86,0.00,,,0.00,Wunderground v.1.15,2014-01-25 15:02:00,
2014-01-25 09:08:00,36.5,32.1,30.28,SW,215,4.0,7.0,84,0.00,,,0.00,Wunderground v.1.15,2014-01-25 15:08:00,
2014-01-25 09:14:00,37.1,31.8,30.28,SW,221,5.0,6.0,81,0.00,,,0.00,Wunderground v.1.15,2014-01-25 15:14:00,
2014-01-25 09:20:00,37.9,32.3,30.28,SW,221,4.0,4.0,80,0.00,,,0.00,Wunderground v.1.15,2014-01-25 15:20:00,
2014-01-25 09:25:00,38.3,32.0,30.28,SW,227,4.0,6.0,78,0.00,,,0.00,Wunderground v.1.15,2014-01-25 15:25:00,
2014-01-25 09:31:00,38.6,31.7,30.28,SW,226,3.0,3.0,76,0.00,,,0.00,Wunderground v.1.15,2014-01-25 15:31:00,
2014-01-25 09:37:00,39.0,31.4,30.28,SW,224,3.0,7.0,74,0.00,,,0.01,Wunderground v.1.15,2014-01-25 15:37:00,
2014-01-25 09:42:00,39.7,32.4,30.28,SW,219,3.0,3.0,75,0.00,,,0.01,Wunderground v.1.15,2014-01-25 15:42:00,
2014-01-25 09:48:00,40.0,31.7,30.28,WSW,247,2.0,5.0,72,0.00,,,0.01,Wunderground v.1.15,2014-01-25 15:48:00,
2014-01-25 09:53:00,40.6,32.3,30.27,SW,228,3.0,6.0,72,0.00,,,0.01,Wunderground v.1.15,2014-01-25 15:53:00,
2014-01-25 09:59:00,41.0,32.3,30.27,SSW,202,5.0,6.0,71,0.00,,,0.01,Wunderground v.1.15,2014-01-25 15:59:00,
2014-01-25 10:04:00,41.7,32.6,30.27,SSW,202,5.0,6.0,70,0.00,,,0.01,Wunderground v.1.15,2014-01-25 16:04:00,
2014-01-25 10:10:00,42.3,32.8,30.27,SW,225,5.0,5.0,69,0.00,,,0.01,Wunderground v.1.15,2014-01-25 16:10:00,
2014-01-25 10:16:00,42.9,33.1,30.26,SW,214,6.0,6.0,68,0.00,,,0.01,Wunderground v.1.15,2014-01-25 16:16:00,
2014-01-25 10:22:00,43.7,33.5,30.26,SW,215,6.0,6.0,67,0.00,,,0.01,Wunderground v.1.15,2014-01-25 16:22:00,
2014-01-25 10:27:00,44.5,33.5,30.26,SSW,202,6.0,7.0,65,0.00,,,0.01,Wunderground v.1.15,2014-01-25 16:27:00,
2014-01-25 10:33:00,45.2,33.7,30.26,SSW,207,5.0,6.0,64,0.00,,,0.01,Wunderground v.1.15,2014-01-25 16:33:00,
2014-01-25 10:39:00,46.1,34.2,30.26,SW,214,5.0,6.0,63,0.00,,,0.01,Wunderground v.1.15,2014-01-25 16:39:00,
2014-01-25 10:45:00,46.8,34.0,30.25,SW,222,5.0,8.0,61,0.00,,,0.02,Wunderground v.1.15,2014-01-25 16:45:00,
2014-01-25 10:51:00,47.4,34.6,30.25,SSW,207,6.0,7.0,61,0.00,,,0.02,Wunderground v.1.15,2014-01-25 16:51:00,
2014-01-25 10:57:00,47.9,34.7,30.25,SW,229,6.0,10.0,60,0.00,,,0.02,Wunderground v.1.15,2014-01-25 16:57:00,
2014-01-25 11:02:00,48.7,35.8,30.25,SW,216,7.0,8.0,61,0.00,,,0.02,Wunderground v.1.15,2014-01-25 17:02:00,
2014-01-25 11:08:00,49.3,35.1,30.25,SSW,212,7.0,8.0,58,0.00,,,0.02,Wunderground v.1.15,2014-01-25 17:08:00,
2014-01-25 11:14:00,50.0,34.9,30.24,SW,217,6.0,7.0,56,0.00,,,0.02,Wunderground v.1.15,2014-01-25 17:14:00,
2014-01-25 11:20:00,50.9,35.3,30.24,SW,223,5.0,6.0,55,0.00,,,0.02,Wunderground v.1.15,2014-01-25 17:20:00,
2014-01-25 11:25:00,51.4,34.3,30.24,SSW,203,6.0,7.0,52,0.00,,,0.02,Wunderground v.1.15,2014-01-25 17:25:00,
2014-01-25 11:31:00,52.0,34.4,30.24,SW,225,4.0,5.0,51,0.00,,,0.02,Wunderground v.1.15,2014-01-25 17:31:00,
2014-01-25 11:37:00,53.0,35.3,30.23,SW,216,4.0,8.0,51,0.00,,,0.02,Wunderground v.1.15,2014-01-25 17:37:00,
2014-01-25 11:43:00,53.2,35.0,30.23,SSW,212,6.0,6.0,50,0.00,,,0.02,Wunderground v.1.15,2014-01-25 17:43:00,
2014-01-25 11:49:00,53.9,36.2,30.22,SW,219,4.0,6.0,51,0.00,,,0.02,Wunderground v.1.15,2014-01-25 17:49:00,
2014-01-25 11:55:00,54.2,34.4,30.22,SSW,194,5.0,8.0,47,0.00,,,0.02,Wunderground v.1.15,2014-01-25 17:55:00,
2014-01-25 12:00:00,54.9,35.6,30.22,SSW,205,6.0,6.0,48,0.00,,,0.02,Wunderground v.1.15,2014-01-25 18:00:00,
2014-01-25 12:06:00,55.5,35.6,30.21,SW,214,6.0,9.0,47,0.00,,,0.02,Wunderground v.1.15,2014-01-25 18:06:00,
2014-01-25 12:12:00,56.3,35.8,30.20,SW,216,6.0,7.0,46,0.00,,,0.02,Wunderground v.1.15,2014-01-25 18:12:00,
2014-01-25 12:18:00,56.9,36.3,30.20,SSW,201,6.0,7.0,46,0.00,,,0.02,Wunderground v.1.15,2014-01-25 18:18:00,
2014-01-25 12:23:00,57.5,35.7,30.19,SW,223,6.0,7.0,44,0.00,,,0.02,Wunderground v.1.15,2014-01-25 18:23:00,
2014-01-25 12:29:00,58.2,35.8,30.19,SW,223,5.0,8.0,43,0.00,,,0.02,Wunderground v.1.15,2014-01-25 18:29:00,
2014-01-25 12:35:00,58.8,36.3,30.18,SSW,211,5.0,6.0,43,0.00,,,0.02,Wunderground v.1.15,2014-01-25 18:35:00,
2014-01-25 12:41:00,59.1,34.8,30.18,SSW,212,4.0,7.0,40,0.00,,,0.02,Wunderground v.1.15,2014-01-25 18:41:00,
2014-01-25 12:46:00,59.5,35.8,30.17,SSW,192,4.0,7.0,41,0.00,,,0.02,Wunderground v.1.15,2014-01-25 18:46:00,
2014-01-25 12:51:00,59.7,35.3,30.17,SSW,200,4.0,5.0,40,0.00,,,0.02,Wunderground v.1.15,2014-01-25 18:51:00,
2014-01-25 12:57:00,60.3,35.9,30.17,South,182,4.0,6.0,40,0.00,,,0.02,Wunderground v.1.15,2014-01-25 18:57:00,
2014-01-25 13:02:00,60.1,35.0,30.16,SSE,162,4.0,7.0,39,0.00,,,0.02,Wunderground v.1.15,2014-01-25 19:02:00,
2014-01-25 13:08:00,60.4,35.3,30.16,SSW,208,4.0,8.0,39,0.00,,,0.02,Wunderground v.1.15,2014-01-25 19:08:00,
2014-01-25 13:14:00,60.8,35.0,30.15,South,184,5.0,6.0,38,0.00,,,0.02,Wunderground v.1.15,2014-01-25 19:14:00,
2014-01-25 13:20:00,61.1,35.3,30.15,SW,216,5.0,7.0,38,0.00,,,0.02,Wunderground v.1.15,2014-01-25 19:20:00,
2014-01-25 13:25:00,61.7,35.1,30.14,South,176,6.0,7.0,37,0.00,,,0.02,Wunderground v.1.15,2014-01-25 19:25:00,
2014-01-25 13:31:00,61.7,34.5,30.14,South,183,6.0,6.0,36,0.00,,,0.02,Wunderground v.1.15,2014-01-25 19:31:00,
2014-01-25 13:37:00,62.0,34.7,30.14,SSW,197,5.0,9.0,36,0.00,,,0.02,Wunderground v.1.15,2014-01-25 19:37:00,
2014-01-25 13:43:00,62.5,35.2,30.13,SSE,156,5.0,6.0,36,0.00,,,0.02,Wunderground v.1.15,2014-01-25 19:43:00,
2014-01-25 13:48:00,62.7,33.9,30.13,South,169,5.0,6.0,34,0.00,,,0.02,Wunderground v.1.15,2014-01-25 19:48:00,
2014-01-25 13:53:00,63.0,34.2,30.13,SSE,164,4.0,8.0,34,0.00,,,0.02,Wunderground v.1.15,2014-01-25 19:53:00,
2014-01-25 13:59:00,63.0,34.9,30.12,South,183,4.0,8.0,35,0.00,,,0.02,Wunderground v.1.15,2014-01-25 19:59:00,
2014-01-25 14:04:00,63.2,33.6,30.12,South,180,4.0,8.0,33,0.00,,,0.02,Wunderground v.1.15,2014-01-25 20:04:00,
2014-01-25 14:10:00,63.1,33.5,30.12,SSE,161,5.0,6.0,33,0.00,,,0.02,Wunderground v.1.15,2014-01-25 20:10:00,
2014-01-25 14:15:00,63.1,35.0,30.11,SSW,196,6.0,8.0,35,0.00,,,0.02,Wunderground v.1.15,2014-01-25 20:15:00,
2014-01-25 14:21:00,63.1,35.0,30.11,SSE,154,6.0,6.0,35,0.00,,,0.02,Wunderground v.1.15,2014-01-25 20:21:00,
2014-01-25 14:27:00,63.2,34.3,30.11,South,188,6.0,9.0,34,0.00,,,0.02,Wunderground v.1.15,2014-01-25 20:27:00,
2014-01-25 14:33:00,63.3,34.4,30.11,South,186,7.0,9.0,34,0.00,,,0.02,Wunderground v.1.15,2014-01-25 20:33:00,
2014-01-25 14:39:00,63.5,33.9,30.10,South,186,5.0,9.0,33,0.00,,,0.02,Wunderground v.1.15,2014-01-25 20:39:00,
2014-01-25 14:44:00,63.7,34.0,30.11,South,189,5.0,8.0,33,0.00,,,0.02,Wunderground v.1.15,2014-01-25 20:44:00,
2014-01-25 14:49:00,63.8,34.1,30.10,SSE,158,5.0,9.0,33,0.00,,,0.02,Wunderground v.1.15,2014-01-25 20:49:00,
2014-01-25 14:55:00,63.8,32.6,30.10,South,177,5.0,10.0,31,0.00,,,0.02,Wunderground v.1.15,2014-01-25 20:55:00,
2014-01-25 15:00:00,63.5,33.9,30.10,SE,140,5.0,5.0,33,0.00,,,0.02,Wunderground v.1.15,2014-01-25 21:00:00,
2014-01-25 15:06:00,63.3,34.4,30.10,South,186,5.0,6.0,34,0.00,,,0.02,Wunderground v.1.15,2014-01-25 21:06:00,
2014-01-25 15:12:00,63.2,34.3,30.10,South,176,4.0,6.0,34,0.00,,,0.02,Wunderground v.1.15,2014-01-25 21:12:00,
2014-01-25 15:17:00,63.1,33.5,30.10,SSE,152,4.0,7.0,33,0.00,,,0.02,Wunderground v.1.15,2014-01-25 21:17:00,
2014-01-25 15:21:00,63.1,32.7,30.09,SSE,168,5.0,6.0,32,0.00,,,0.02,Wunderground v.1.15,2014-01-25 21:21:00,
2014-01-25 15:27:00,63.2,33.6,30.09,SSE,161,5.0,6.0,33,0.00,,,0.02,Wunderground v.1.15,2014-01-25 21:27:00,
2014-01-25 15:33:00,63.3,34.4,30.09,South,173,5.0,7.0,34,0.00,,,0.02,Wunderground v.1.15,2014-01-25 21:33:00,
2014-01-25 15:39:00,63.4,34.5,30.09,SSE,163,4.0,7.0,34,0.00,,,0.02,Wunderground v.1.15,2014-01-25 21:39:00,
2014-01-25 15:45:00,63.5,34.6,30.09,SSE,165,5.0,7.0,34,0.00,,,0.02,Wunderground v.1.15,2014-01-25 21:45:00,
2014-01-25 15:51:00,63.6,34.7,30.09,SSE,159,5.0,6.0,34,0.00,,,0.02,Wunderground v.1.15,2014-01-25 21:51:00,
2014-01-25 15:57:00,63.4,34.5,30.09,SSW,198,6.0,9.0,34,0.00,,,0.02,Wunderground v.1.15,2014-01-25 21:57:00,
2014-01-25 16:02:00,63.3,35.9,30.09,South,178,5.0,8.0,36,0.00,,,0.02,Wunderground v.1.15,2014-01-25 22:02:00,
2014-01-25 16:08:00,63.1,34.3,30.09,South,171,4.0,8.0,34,0.00,,,0.02,Wunderground v.1.15,2014-01-25 22:08:00,
2014-01-25 16:13:00,63.1,35.0,30.08,South,186,4.0,6.0,35,0.00,,,0.02,Wunderground v.1.15,2014-01-25 22:13:00,
2014-01-25 16:19:00,63.1,34.3,30.08,South,186,4.0,6.0,34,0.00,,,0.02,Wunderground v.1.15,2014-01-25 22:19:00,
2014-01-25 16:25:00,63.1,35.7,30.08,South,187,3.0,6.0,36,0.00,,,0.02,Wunderground v.1.15,2014-01-25 22:25:00,
2014-01-25 16:31:00,63.1,35.7,30.08,South,187,2.0,3.0,36,0.00,,,0.02,Wunderground v.1.15,2014-01-25 22:31:00,
2014-01-25 16:36:00,63.1,35.7,30.08,South,187,2.0,5.0,36,0.00,,,0.02,Wunderground v.1.15,2014-01-25 22:36:00,
2014-01-25 16:42:00,63.1,36.4,30.08,South,187,2.0,5.0,37,0.00,,,0.02,Wunderground v.1.15,2014-01-25 22:42:00,
2014-01-25 16:48:00,62.9,35.5,30.08,SSW,204,5.0,9.0,36,0.00,,,0.02,Wunderground v.1.15,2014-01-25 22:48:00,
2014-01-25 16:54:00,62.7,35.3,30.09,South,189,6.0,7.0,36,0.00,,,0.02,Wunderground v.1.15,2014-01-25 22:54:00,
2014-01-25 17:00:00,62.4,35.8,30.09,SSW,196,5.0,7.0,37,0.00,,,0.02,Wunderground v.1.15,2014-01-25 23:00:00,
2014-01-25 17:06:00,62.3,35.7,30.09,SSW,198,5.0,7.0,37,0.00,,,0.02,Wunderground v.1.15,2014-01-25 23:06:00,
2014-01-25 17:11:00,62.1,35.5,30.09,SSW,196,4.0,5.0,37,0.00,,,0.02,Wunderground v.1.15,2014-01-25 23:11:00,
2014-01-25 17:17:00,62.1,36.2,30.09,South,180,5.0,5.0,38,0.00,,,0.02,Wunderground v.1.15,2014-01-25 23:17:00,
2014-01-25 17:23:00,61.9,35.3,30.09,South,171,4.0,5.0,37,0.00,,,0.02,Wunderground v.1.15,2014-01-25 23:23:00,
2014-01-25 17:29:00,61.8,35.9,30.09,South,171,3.0,6.0,38,0.00,,,0.02,Wunderground v.1.15,2014-01-25 23:29:00,
2014-01-25 17:34:00,61.6,37.0,30.09,South,171,3.0,5.0,40,0.00,,,0.02,Wunderground v.1.15,2014-01-25 23:34:00,
2014-01-25 17:40:00,61.4,36.2,30.09,South,171,2.0,2.0,39,0.00,,,0.02,Wunderground v.1.15,2014-01-25 23:40:00,
2014-01-25 17:46:00,61.2,36.0,30.08,South,171,2.0,4.0,39,0.00,,,0.02,Wunderground v.1.15,2014-01-25 23:46:00,
2014-01-25 17:52:00,60.8,37.5,30.09,South,171,1.0,1.0,42,0.00,,,0.02,Wunderground v.1.15,2014-01-25 23:52:00,
2014-01-25 17:57:00,60.5,36.7,30.09,South,171,0.0,1.0,41,0.00,,,0.02,Wunderground v.1.15,2014-01-25 23:57:00,
2014-01-25 18:02:00,60.3,38.9,30.09,South,171,0.0,0.0,45,0.00,,,0.02,Wunderground v.1.15,2014-01-26 00:02:00,
2014-01-25 18:07:00,59.9,37.3,30.08,South,171,0.0,0.0,43,0.00,,,0.02,Wunderground v.1.15,2014-01-26 00:07:00,
2014-01-25 18:12:00,59.5,37.0,30.08,South,171,0.0,0.0,43,0.00,,,0.02,Wunderground v.1.15,2014-01-26 00:12:00,
2014-01-25 18:18:00,59.3,39.1,30.08,South,171,0.0,0.0,47,0.00,,,0.02,Wunderground v.1.15,2014-01-26 00:18:00,
2014-01-25 18:24:00,59.1,37.8,30.08,South,171,0.0,0.0,45,0.00,,,0.02,Wunderground v.1.15,2014-01-26 00:24:00,
2014-01-25 18:30:00,58.7,39.0,30.07,South,171,0.0,0.0,48,0.00,,,0.02,Wunderground v.1.15,2014-01-26 00:30:00,
2014-01-25 18:36:00,58.3,40.2,30.07,South,171,0.0,0.0,51,0.00,,,0.02,Wunderground v.1.15,2014-01-26 00:36:00,
2014-01-25 18:42:00,57.5,40.0,30.07,South,171,0.0,0.0,52,0.00,,,0.02,Wunderground v.1.15,2014-01-26 00:42:00,
2014-01-25 18:48:00,57.0,38.0,30.07,South,171,0.0,0.0,49,0.00,,,0.02,Wunderground v.1.15,2014-01-26 00:48:00,
2014-01-25 18:53:00,56.5,40.5,30.07,South,171,0.0,0.0,55,0.00,,,0.02,Wunderground v.1.15,2014-01-26 00:53:00,
2014-01-25 18:58:00,56.0,39.1,30.08,South,171,0.0,0.0,53,0.00,,,0.02,Wunderground v.1.15,2014-01-26 00:58:00,
2014-01-25 19:03:00,55.5,39.1,30.08,South,171,0.0,0.0,54,0.00,,,0.02,Wunderground v.1.15,2014-01-26 01:03:00,
2014-01-25 19:09:00,54.7,39.3,30.08,South,171,0.0,0.0,56,0.00,,,0.02,Wunderground v.1.15,2014-01-26 01:09:00,
2014-01-25 19:15:00,54.3,39.4,30.08,South,171,0.0,0.0,57,0.00,,,0.02,Wunderground v.1.15,2014-01-26 01:15:00,
2014-01-25 19:20:00,54.2,39.7,30.08,South,171,0.0,0.0,58,0.00,,,0.02,Wunderground v.1.15,2014-01-26 01:20:00,
2014-01-25 19:26:00,54.0,40.4,30.08,South,171,0.0,0.0,60,0.00,,,0.02,Wunderground v.1.15,2014-01-26 01:26:00,
2014-01-25 19:32:00,53.7,40.1,30.08,South,171,0.0,0.0,60,0.00,,,0.02,Wunderground v.1.15,2014-01-26 01:32:00,
2014-01-25 19:38:00,53.5,40.4,30.08,South,171,0.0,0.0,61,0.00,,,0.02,Wunderground v.1.15,2014-01-26 01:38:00,
2014-01-25 19:44:00,53.1,40.0,30.08,South,171,0.0,0.0,61,0.00,,,0.02,Wunderground v.1.15,2014-01-26 01:44:00,
2014-01-25 19:49:00,52.8,39.7,30.08,South,171,0.0,0.0,61,0.00,,,0.02,Wunderground v.1.15,2014-01-26 01:49:00,
2014-01-25 19:55:00,52.4,39.3,30.08,South,171,0.0,0.0,61,0.00,,,0.02,Wunderground v.1.15,2014-01-26 01:55:00,
2014-01-25 20:00:00,52.2,39.6,30.08,South,171,0.0,0.0,62,0.00,,,0.02,Wunderground v.1.15,2014-01-26 02:00:00,
2014-01-25 20:06:00,51.9,39.3,30.08,South,171,0.0,0.0,62,0.00,,,0.02,Wunderground v.1.15,2014-01-26 02:06:00,
2014-01-25 20:12:00,51.5,39.3,30.08,South,171,0.0,0.0,63,0.00,,,0.02,Wunderground v.1.15,2014-01-26 02:12:00,
2014-01-25 20:17:00,51.2,39.8,30.07,South,171,0.0,0.0,65,0.00,,,0.02,Wunderground v.1.15,2014-01-26 02:17:00,
2014-01-25 20:23:00,51.0,39.6,30.07,South,171,0.0,0.0,65,0.00,,,0.02,Wunderground v.1.15,2014-01-26 02:23:00,
2014-01-25 20:29:00,50.8,40.2,30.07,South,171,0.0,0.0,67,0.00,,,0.02,Wunderground v.1.15,2014-01-26 02:29:00,
2014-01-25 20:35:00,50.5,40.3,30.07,South,171,0.0,0.0,68,0.00,,,0.02,Wunderground v.1.15,2014-01-26 02:35:00,
2014-01-25 20:41:00,49.9,39.4,30.07,South,171,0.0,0.0,67,0.00,,,0.02,Wunderground v.1.15,2014-01-26 02:41:00,
2014-01-25 20:47:00,49.7,39.2,30.07,South,171,0.0,1.0,67,0.00,,,0.02,Wunderground v.1.15,2014-01-26 02:47:00,
2014-01-25 20:53:00,49.4,38.9,30.07,South,171,0.0,0.0,67,0.00,,,0.02,Wunderground v.1.15,2014-01-26 02:53:00,
2014-01-25 20:59:00,49.2,39.1,30.07,South,171,0.0,0.0,68,0.00,,,0.02,Wunderground v.1.15,2014-01-26 02:59:00,
2014-01-25 21:04:00,48.9,38.8,30.07,South,171,0.0,1.0,68,0.00,,,0.02,Wunderground v.1.15,2014-01-26 03:04:00,
2014-01-25 21:10:00,48.6,38.9,30.08,South,171,0.0,0.0,69,0.00,,,0.02,Wunderground v.1.15,2014-01-26 03:10:00,
2014-01-25 21:15:00,48.5,38.8,30.07,South,171,0.0,0.0,69,0.00,,,0.02,Wunderground v.1.15,2014-01-26 03:15:00,
2014-01-25 21:21:00,48.4,39.1,30.07,South,171,0.0,0.0,70,0.00,,,0.02,Wunderground v.1.15,2014-01-26 03:21:00,
2014-01-25 21:27:00,48.2,38.5,30.07,South,171,0.0,0.0,69,0.00,,,0.02,Wunderground v.1.15,2014-01-26 03:27:00,
2014-01-25 21:33:00,48.1,38.0,30.07,South,171,0.0,0.0,68,0.00,,,0.02,Wunderground v.1.15,2014-01-26 03:33:00,
2014-01-25 21:38:00,48.1,38.4,30.07,South,171,0.0,0.0,69,0.00,,,0.02,Wunderground v.1.15,2014-01-26 03:38:00,
2014-01-25 21:44:00,47.9,38.6,30.07,South,171,0.0,0.0,70,0.00,,,0.02,Wunderground v.1.15,2014-01-26 03:44:00,
2014-01-25 21:50:00,47.8,38.8,30.07,South,171,0.0,0.0,71,0.00,,,0.02,Wunderground v.1.15,2014-01-26 03:50:00,
2014-01-25 21:56:00,47.6,38.7,30.07,South,171,0.0,0.0,71,0.00,,,0.02,Wunderground v.1.15,2014-01-26 03:56:00,
2014-01-25 22:01:00,47.4,38.5,30.07,South,171,0.0,0.0,71,0.00,,,0.02,Wunderground v.1.15,2014-01-26 04:01:00,
2014-01-25 22:07:00,47.2,38.6,30.07,South,171,0.0,0.0,72,0.00,,,0.02,Wunderground v.1.15,2014-01-26 04:07:00,
2014-01-25 22:12:00,47.0,38.4,30.06,South,171,0.0,0.0,72,0.00,,,0.02,Wunderground v.1.15,2014-01-26 04:12:00,
2014-01-25 22:18:00,46.8,38.2,30.06,South,171,0.0,0.0,72,0.00,,,0.02,Wunderground v.1.15,2014-01-26 04:18:00,
2014-01-25 22:24:00,46.5,38.0,30.06,South,171,0.0,0.0,72,0.00,,,0.02,Wunderground v.1.15,2014-01-26 04:24:00,
2014-01-25 22:30:00,46.3,37.8,30.06,South,171,0.0,0.0,72,0.00,,,0.02,Wunderground v.1.15,2014-01-26 04:30:00,
2014-01-25 22:34:00,46.1,37.9,30.06,South,171,0.0,1.0,73,0.00,,,0.02,Wunderground v.1.15,2014-01-26 04:34:00,
2014-01-25 22:40:00,46.0,38.2,30.06,South,171,0.0,0.0,74,0.00,,,0.02,Wunderground v.1.15,2014-01-26 04:40:00,
2014-01-25 22:46:00,45.7,38.2,30.05,South,171,0.0,0.0,75,0.00,,,0.02,Wunderground v.1.15,2014-01-26 04:46:00,
2014-01-25 22:52:00,45.5,37.7,30.05,South,171,0.0,0.0,74,0.00,,,0.02,Wunderground v.1.15,2014-01-26 04:52:00,
2014-01-25 22:57:00,45.3,37.5,30.05,South,171,0.0,0.0,74,0.00,,,0.02,Wunderground v.1.15,2014-01-26 04:57:00,
2014-01-25 23:01:00,45.1,37.3,30.05,South,171,0.0,0.0,74,0.00,,,0.02,Wunderground v.1.15,2014-01-26 05:01:00,
2014-01-25 23:02:00,45.1,37.3,30.05,South,171,0.0,0.0,74,0.00,,,0.02,Wunderground v.1.15,2014-01-26 05:02:00,
2014-01-25 23:03:00,45.1,37.3,30.05,South,171,0.0,0.0,74,0.00,,,0.02,Wunderground v.1.15,2014-01-26 05:03:00,
2014-01-25 23:04:00,45.1,37.3,30.05,South,171,0.0,0.0,74,0.00,,,0.02,Wunderground v.1.15,2014-01-26 05:04:00,
2014-01-25 23:07:00,44.9,37.1,30.05,South,171,0.0,0.0,74,0.00,,,0.02,Wunderground v.1.15,2014-01-26 05:07:00,
2014-01-25 23:12:00,44.8,37.0,30.05,South,171,0.0,0.0,74,0.00,,,0.02,Wunderground v.1.15,2014-01-26 05:12:00,
2014-01-25 23:18:00,44.7,36.9,30.05,South,171,0.0,0.0,74,0.00,,,0.02,Wunderground v.1.15,2014-01-26 05:18:00,
2014-01-25 23:24:00,44.7,37.3,30.05,South,171,0.0,0.0,75,0.00,,,0.02,Wunderground v.1.15,2014-01-26 05:24:00,
2014-01-25 23:30:00,44.7,37.6,30.04,South,171,0.0,0.0,76,0.00,,,0.02,Wunderground v.1.15,2014-01-26 05:30:00,
2014-01-25 23:36:00,44.7,37.9,30.04,South,171,0.0,0.0,77,0.00,,,0.02,Wunderground v.1.15,2014-01-26 05:36:00,
2014-01-25 23:42:00,44.6,37.8,30.03,South,171,0.0,0.0,77,0.00,,,0.02,Wunderground v.1.15,2014-01-26 05:42:00,
2014-01-25 23:48:00,44.5,37.7,30.03,South,171,0.0,0.0,77,0.00,,,0.02,Wunderground v.1.15,2014-01-26 05:48:00,
2014-01-25 23:54:00,44.5,38.1,30.03,South,171,0.0,0.0,78,0.00,,,0.02,Wunderground v.1.15,2014-01-26 05:54:00,